Location: Unspecified
(0.0000°N, 0.0000°E)
Time: 01:44:55
(UTC+00:00)

CAPRICORN - Pass Details

Date: 25 May 2026
Orbit: 325 x 40040 km, 64.5° (Epoch: 16 April)

Event Time Altitude Azimuth Distance (km) Brightness Sun altitude
Rises 20:01:09 0° 110° (ESE) 42,898 ? -28.8°
Reaches altitude 10° 20:50:27 10° 105° (ESE) 43,958 ? -39.9°
Maximum altitude 01:16:55 60° 49° (NE) 29,416 ? -61.4°
Drops below altitude 10° 03:09:02 10° 16° (NNE) 12,997 ? -38.7°
Sets 03:15:39 0° 18° (NNE) 12,208 ? -37.2°
